Showing default

VIGORIDE 7, 68473

Orbit data source: Space-Track

VIGORIDE 7, 68473 is an American payload satellite in SSO that was launched on Mon, 30 Mar 2026 UTC via an FALCON 9 launch vehicle from the Air Force Western Test Range (AFWTR). Payload-class satellites include a variety of spacecraft equipped with specific instruments for various scientific and technological missions. These include communications satellites like Starlink; space stations such as the ISS; scientific satellites like the Hubble; Earth observation satellites from companies like Planet Labs, Umbra, and HawkEye 360; GPS; miniature CubeSats for education and research; and military/defense satellites.

Loading next visibility...
Identifier
68473, 2026-067BK
Orbit
SSO
Country
Flag of USUS
Related business
None
Manufacturer
Unknown
Mission
Operational spacecraft
Bus & Motor
Unknown
Mass
Unknown
Launch date (UTC)
2026-03-30 (3 months ago)
Launch vehicle
FALCON 9
Launch site
Air Force Western Test Range (AFWTR)
Object type
Payload
Rocket body
Debris
Shape & HBR
Unknown shape, 1.4 m
Radar Cross Section
Large (>1 m²)

Expand to show TLE details & history
Last TLE update: 1 day ago

TLE from 1 day ago
0 VIGORIDE 7
1 68473U 26067BK  26171.34480559  .00006813  00000-0  29751-3 0  9999
2 68473  97.4537 129.9687 0011246 131.7129 228.5071 15.22391156 12413
Epoch: 2026-06-20T08:16Z
TLE epoch observation values (Epoch: 2026-06-20T08:16:31.202Z)
Latitude
-0.00007°
Longitude
97.27793°
Altitude
506.852 km
Speed
7.608 km/s
True Right ascension
08h 39m 52s
True Declination
0° 00' 00"
Sunlit
Object was in daylight at epoch
Visualization orbit readout
Latitude
Unknown
Longitude
Unknown
Altitude
Unknown
Speed
Unknown
Apparent Right ascension
Unknown
Apparent Declination
Unknown
Sunlit
N/A
Visualization observer readout
Local Sidereal Time
05:43:30
Azimuth
Unknown
Elevation
Unknown
Doppler factor
Unknown
Orbital elements
Apogee altitude
503.325 km
Perigee altitude
487.865 km
Semi-major axis
6,873.732 km
Eccentricity
0.00112
Inclination
97.4537°
RAAN
129.9687°
Arg. of periapsis
131.7129°
True anomaly
228.41066°
Mean anomaly
228.5071°
Eccentric anomaly
228.45887°
Mean motion
3.8085 °/min
Orbital period
94.53 mins
BSTAR
0.00029751
Loading maneuver chart data...
Computing Atmospheric mass density...
Loading historical data...
Loading historical data...
Loading historical data...
Loading historical data...
Loading historical data...
Loading historical data...
Loading historical data...

Documentation

Showing up to 5 results
|